164585 Oenomaos (2007 ND2) |
Classification: Jupiter Trojan SPK-ID: 2164585 |
[ hide orbit diagram ]
For accurate long-term ephemerides, please instead use our Horizons system.This orbit viewer was implemented using two-body methods, and hence should not be used for determining accurate long-term trajectories (over several years or decades) or planetary encounter circumstances.
Orbital Elements at Epoch 2459200.5 (2020-Dec-17.0) TDB
Reference: JPL 19 (heliocentric ecliptic J2000)
Element | Value | Uncertainty (1-sigma) | Units |
e | .03686578209487656 | 7.064e-08 | |
a | 5.230573174358184 | 1.6071e-07 | au |
q | 5.037744003480988 | 4.9523e-07 | au |
i | 13.98896863942391 | 4.7776e-06 | deg |
node | 236.1242225153615 | 2.5757e-05 | deg |
peri | 159.2714000959198 | 8.268e-05 | deg |
M | 318.5306499697335 | 7.9735e-05 | deg |
tp | 2459703.823349208097 (2022-May-04.32334921) | 0.00097249 | TDB |
period | 4369.405490625452 11.96 | 0.00020137 5.513e-07 | d yr |
n | .08239107145637524 | 3.7971e-09 | deg/d |
Q | 5.423402345235379 | 1.6663e-07 | au |
|
| | Orbit Determination Parameters
Additional Information
|
[ show covariance matrix ]
Physical Parameter Table
Parameter |
Symbol |
Value |
Units |
Sigma |
Reference |
Notes |
absolute magnitude |
H |
12.77 |
|
n/a |
E2021B55 |
|
|
164585 Oenomaos | Discovered 2007 July 13 by P. Kocher at Observatoire Naef. |
In Greek mythology, King Oenomaus of Pisa was the son of Ares by Harpina and father of Hippodamia. He married Evarete of Argos, the daughter of Acrisius and Eurydice. Oenomaus' chariot race was one legendary origin of the Olympic Games. |
NOTE: some special characters may not display properly (any characters within {} are an attempt to place the proper accent above a character) |
Reference: 20111210/MPCPages.arc | Last Updated: 2011-12-12 |
|
|